User: anonymous   Login
Location: Thompson
(55.7500°N, 97.8670°W)
Time: 16:01:07
(UTC-05:00)
Language:

Cosmos 1833 Rocket - Orbit

View from above orbital plane
View from above orbital plane
View from above satellite
View from above satellite

Ground track
Ground track

The orbit data is extracted from the following two-line orbital elements,

1 17590U 87027B   18112.73487237 -.00000061  00000-0 -65907-5 0  9991
2 17590  71.0040 218.1351 0005981 213.4989 146.5757 14.16758486607969
Epoch (UTC): 22 April 2018 17:38:12
Eccentricity: 0.0005981
inclination: 71.0040°
perigee height: 832 km
apogee height: 840 km
right ascension of ascending node: 218.1351°
argument of perigee: 213.4989°
revolutions per day: 14.16758486
mean anomaly at epoch: 146.5757°
orbit number at epoch: 60796

The dashed part of the orbit path shows where the satellite is in the earth's shadow,  

DLR